Погода в Сремска-Митровице

Сербия     44°58′19″N   19°36′42″E
темп.,
°C
ветер,
м/с
пор.,
м/с
влажн.,
%
обл.,
%
осадки,
мм/ч
давл.,
гПа
погр.,
м
19 апреля, пн
пн1923:00+5зюз3597100 0.0 1018271
02:00+5зюз2497100 0.1 1018178
05:00+5зюз1295100 0.1 101675
08:00+6зюз1290100 0.1 1016168
11:00+8з2378100 0.0 1016632
14:00+10зсз4371100 0.2 1015985
17:00+10сз447298 0.1 1014839
20:00+7зсз3589100 0.1 1015161
20 апреля, вт
вт2023:00+5зсз359596 0.0 1015125
02:00+5з3693100 0.0 1015207
05:00+6з3692100 0.0 1015305
08:00+7зсз358490 0.3 1016570
11:00+9з3473100 0.4 1016898
14:00+12з4463100 0.8 10151217
17:00+12зсз3459100 0.1 10141287
20:00+8зсз3589100 0.1 101681
21 апреля, ср
ср2123:00+6зсз229269 0.0 101726
02:00+5з22945 0.0 101726
05:00+4з22935 0.0 101727
08:00+8з24795 0.0 1018239
11:00+14з33602 0.0 1018949
14:00+17з34464 0.0 10171832
17:00+17зсз35435 0.0 10162076
20:00+12ююз116092 0.0 101710
22 апреля, чт
чт2223:00+10юз227364 0.0 101817
02:00+11зюз227025 0.1 101841
05:00+8зюз1180100 0.0 101811
08:00+11юз2367100 0.0 1019152
11:00+17ююз33470 0.0 1018800
14:00+19ююз34365 0.0 10172352
17:00+19ю454061 0.0 10152064
20:00+13ссз116576 0.0 101511
23 апреля, пт
пт2323:00+12зсз227896 0.6 101730
02:00+9с6118995 0.9 1018432
05:00+8сз3788100 0.1 1020533
08:00+9ссз3571100 0.4 1022537
11:00+12ссз4452100 0.0 10221416
14:00+14с434399 0.0 10211879
17:00+14ссз334333 0.0 10201763
20:00+10с3560100 0.0 102192